User: anonymous   Login
Location: Unspecified
(0.0000°N, 0.0000°E)
Time: 04:50:22
(UTC+01:00)
Language:

Cosmos 1833 Rocket - Orbit

View from above orbital plane
View from above orbital plane
View from above satellite
View from above satellite

Ground track
Ground track

The orbit data is extracted from the following two-line orbital elements,

1 17590U 87027B   16343.14262944 -.00000058  00000-0 -51305-5 0  9999
2 17590  71.0013 192.2636 0007081 245.2849 114.7537 14.16733509537063
Epoch (UTC): 08 December 2016 03:25:23
Eccentricity: 0.0007081
inclination: 71.0013°
perigee height: 831 km
apogee height: 841 km
right ascension of ascending node: 192.2636°
argument of perigee: 245.2849°
revolutions per day: 14.16733509
mean anomaly at epoch: 114.7537°
orbit number at epoch: 53706

The dashed part of the orbit path shows where the satellite is in the earth's shadow,  

DLR